Location: Gorrie
(43.8742°N, 81.1087°W)
Time: 15:07:33
(UTC+00:00)

Cosmos 1244 Rocket - Visible Passes

Search period start: 16 March 2026 00:00
Search period end: 26 March 2026 00:00
Orbit: 954 x 996 km, 82.9° (Epoch: 16 March)

Date Brightness Start Highest point End Pass type
(mag) Time Alt. Az. Time Alt. Az. Time Alt. Az.
16 Mar 4.4 01:48:03 54° SE 01:49:14 64° E 01:55:26 10° NNE visible
16 Mar 6.6 03:32:34 17° W 03:35:09 21° WNW 03:39:50 10° NNW visible
17 Mar 5.8 00:26:39 12° ESE 00:29:47 17° E 00:33:42 10° NE visible
17 Mar 4.6 02:11:08 30° SSW 02:14:21 74° W 02:20:40 10° N visible
17 Mar 7.2 03:58:32 10° W 04:00:55 12° WNW 04:03:18 10° NW visible
18 Mar 5.2 00:49:11 10° SE 00:54:31 31° E 00:59:55 10° NNE visible
18 Mar 5.5 02:33:48 10° SW 02:39:40 43° WNW 02:45:38 10° N visible
19 Mar 4.5 01:13:24 10° SSE 01:19:26 55° E 01:25:32 10° NNE visible
19 Mar 6.4 03:00:09 10° WSW 03:05:10 25° WNW 03:10:16 10° NNW visible
19 Mar 6.0 23:56:52 10° ESE 00:00:05 15° ENE 00:03:20 10° NE visible
20 Mar 4.5 01:38:16 10° S 01:44:30 86° W 01:50:51 10° N visible
20 Mar 7.1 03:27:34 10° W 03:30:52 15° WNW 03:34:12 10° NNW visible
20 Mar 7.5 10:49:23 10° NNE 10:52:37 14° ENE 10:55:50 10° E visible
21 Mar 5.4 00:19:45 10° SE 00:24:46 26° E 00:29:52 10° NNE visible
21 Mar 5.3 02:03:44 10° SSW 02:09:46 50° WNW 02:15:54 10° N visible
22 Mar 4.7 00:43:44 10° SSE 00:49:38 46° E 00:55:37 10° NNE visible
22 Mar 6.3 02:29:51 10° SW 02:35:12 29° WNW 02:40:38 10° NNW visible
23 Mar 4.4 01:08:26 10° S 01:14:40 81° E 01:21:00 10° N visible
23 Mar 7.0 02:56:53 10° WSW 03:00:50 17° WNW 03:04:51 10° NNW visible
23 Mar 7.7 10:20:18 10° NE 10:22:35 12° ENE 10:24:50 10° E visible
24 Mar 5.1 01:33:44 10° SSW 01:39:52 59° WNW 01:46:08 10° N visible
24 Mar 7.3 10:43:41 10° NNE 10:48:22 21° ENE 10:53:00 10° ESE visible
25 Mar 4.9 00:14:08 10° SSE 00:19:52 39° E 00:25:40 10° NNE visible
25 Mar 6.1 01:59:39 10° SW 02:05:15 34° WNW 02:10:58 10° N visible
